Showing default

IRIDIUM 172, 43927

Orbit data source: Space-Track

IRIDIUM 172, 43927 is a payload satellite owned by Iridium (US) in LEO that was launched on Fri, 11 Jan 2019 UTC via an FALCON 9 launch vehicle from the Air Force Western Test Range (AFWTR). Payloads include a variety of satellites, spacecraft, and rockets equipped with specific instruments for various scientific and technological missions. These include communications satellites like Starlink; space stations such as the ISS; scientific satellites like the Hubble; Earth observation satellites from companies like Planet Labs, Umbra, and HawkEye 360; GPS; miniature CubeSats for education and research; and military/defense satellites.

Loading next visibility...
IRIDIUM 172 details
Identifier
43927, 2019-002F
Orbit
LEO
Last TLE update13 hours ago
Origin
Flag of USIridium (US)
ManufacturerNGIS SSG Gilbert
MissionOperational Commercial Communications
Bus & MotorELITEBUS, Unknown motor
Mass860 kg wet, 700 kg dry
Launch date (UTC)
2019-01-11 (6 years ago)
Launch vehicle
FALCON 9
Launch site
Air Force Western Test Range (AFWTR)
Object type
Payload
Rocket body
Debris
Shape & HBRTrap Box + 2 Pan, 9.4 m
Radar Cross Section14.423 m², Large (>1 m²)

Expand to show TLE details & history

TLE from 13 hours ago
0 IRIDIUM 172
1 43927U 19002F   24338.79961886  .00001007  00000-0  35241-3 0  9997
2 43927  86.3998 227.7196 0002143  85.5057 274.6384 14.34215621308648
Epoch: 2024-12-03T19:11Z
Definitive object data (Epoch: 2024-12-03T19:11:27.069Z)
Latitude0.00002°
Longitude-133.24712°
Altitude780.601 km
Speed7.464 km/s
True Right ascension15h 10m 52s
True Declination0° 00' 00"
Sunlit
Object was in daylight at TLE epoch
Visualization TLE readout
Latitude-0.35724°
Longitude-133.50254°
Altitude780.606 km
Speed7.464 km/s
Apparent Right ascension16h 29m 38s
Apparent Declination-20° 33' 09"
Sunlit
Object is in daylight
Visualization observer readout
Local Sidereal Time06:29:13
Azimuth61.673° ENE
Elevation-57.979°
Doppler factor1
Orbital elements
Apogee altitude776.172 km
Perigee altitude773.106 km
Semi-major axis7,152.776 km
Eccentricity0.0002143
Inclination86.3998°
RAAN227.7196°
Arg. of periapsis85.5057°
True anomaly274.61392°
Mean anomaly274.6384°
Eccentric anomaly274.62616°
Mean motion3.58783 °/min
BSTAR0.00035241
Orbital period100.34 mins
Loading maneuver chart data...
Loading historical data...
Loading historical data...
Loading historical data...
Loading historical data...
Loading historical data...
Loading historical data...
Loading historical data...

IRIDIUM 172 Visibility forecast

Observer location: undefined°, undefined

Span
Click to sort rows by Start time (UTC) header in descending order
Start Az.
Max El. time (UTC)
Max El. Az.
Max El.
End time (UTC)
End Az.
9 mins2024-12-04 17:04:05.162Z167.111° S2024-12-04 17:09:05.162Z63.335° ENE40.641°2024-12-04 17:13:05.162Z11.055° NNE
4 mins2024-12-04 18:48:05.162Z264.136° W2024-12-04 18:50:05.162Z289.394° WNW14.045°2024-12-04 18:52:05.162Z313.503° NW
4 mins2024-12-05 03:37:05.162Z53.692° ENE2024-12-05 03:39:05.162Z80.122° E15.145°2024-12-05 03:41:05.162Z104.83° ESE
8 mins2024-12-05 05:16:05.162Z344.658° N2024-12-05 05:20:05.162Z257.66° W39.602°2024-12-05 05:24:05.162Z196.635° SSW
|